カタログに戻る

SL-12 DEB

LostHEO
NORAD 37884·DEBRIS·🇷🇺 Russia

打ち上げ Sep 16, 1987 から Baikonur Cosmodrome

Loading…

次のパス (今後24時間)

TLE

古いSource: Space-Track

元期: Mar 30, 2024, 00:25 UTC

1 37884U 87079BP  24090.01789942  .00000384  00000-0  55473-3 0  9998
2 37884  65.3012 312.3071 5065902 285.2270  25.9768  5.29946732296077

AllMySatでSL-12 DEBをリアルタイム追跡

Download on the App Store